Location: Artiguedieu
(43.5000°N, 0.5454°E)
Time: 20:34:06
(UTC+00:00)

Transit 2A - Pass Details

Date: 30 July 2021
Orbit: 594 x 964 km, 66.7° (Epoch: 28 September)

Event Time Altitude Azimuth Distance (km) Brightness Sun altitude
Rises 15:02:49 0° 330° (NNW) 3,226 9.3 45.0°
Reaches altitude 10° 15:05:08 10° 333° (NNW) 2,353 8.7 44.6°
Maximum altitude 15:10:34 68° 57° (ENE) 911 6.8 43.6°
Drops below altitude 10° 15:16:32 10° 140° (SE) 2,578 8.6 42.6°
Sets 15:19:10 0° 143° (SE) 3,557 9.3 42.1°
